Regional Weather Roundup
Issued by NWS Albany, NY

Home | Current Version | Previous Version | Graphics & Text | Print | Product List | Glossary On
Versions: 1 2 3 4 5 6 7 8 9 10 11 12 13 14 15 16 17 18 19 20 21 22 23 24 25 26 27 28 29 30 31 32 33 34 35 36 37 38 39 40 41 42 43 44 45 46 47 48 49 50
000
ASUS41 KALY 281810
RWRALY

NEW YORK STATE HOURLY WEATHER ROUNDUP
NATIONAL WEATHER SERVICE ALBANY NY
200 PM EDT MON JUL 28 2014

NOTE: "FAIR" INDICATES FEW OR NO CLOUDS BELOW 12,000 FEET WITH NO
SIGNIFICANT WEATHER AND/OR NO OBSTRUCTIONS TO VISIBILITY.

NYZ032-033-038>043-046>054-057>066-NYZ062>081-281900-
EAST


CITY           SKY/WX    TMP DP  RH WIND       PRES   REMARKS
ALBANY         PTSUNNY   74  64  71 N3        29.47F
GLENS FALLS    CLOUDY    70  63  78 CALM      29.49F
POUGHKEEPSIE   MOSUNNY   80  65  59 SW8G16    29.47F
NEWBURGH       PTSUNNY   81  64  57 W21         N/A
MONTGOMERY     SUNNY     82  63  52 SW13      29.49F
WHITE PLAINS   PTSUNNY   80  64  58 VRB7      29.51F
ISLIP          MOSUNNY   83  68  60 S14G20    29.50F
NEW YORK CITY  PTSUNNY   82  61  48 SW13G20   29.51F
CENTRAL PARK   MOSUNNY   79  62  56 VRB6G20   29.55F
$$

NYZ005>009-017-018-044>046-055-056-281900-
CENTRAL


CITY           SKY/WX    TMP DP  RH WIND       PRES   REMARKS
FULTON         LGT RAIN  63  60  90 N15G22    29.59R
SYRACUSE       LGT RAIN  64  63  96 NW13      29.56R
ROME           LGT RAIN  67  64  90 NW14      29.51F
ELMIRA         LGT RAIN  67  61  81 NW8       29.60R
BINGHAMTON     CLOUDY    68  61  77 W15G29    29.55R
MONTICELLO     PTSUNNY   73  63  68 W12G18    29.55S
$$

NYZ026>034-041>043-281900-
NORTH


CITY           SKY/WX    TMP DP  RH WIND       PRES   REMARKS
WATERTOWN      RAIN      62  57  83 N12       29.61S
FORT DRUM      NOT AVBL
MASSENA        RAIN      62  60  93 N9        29.62F FOG
SARANAC LAKE   HVY RAIN  58  57  97 N12       29.55F FOG
PLATTSBURGH    LGT RAIN  63  62  97 N16       29.53F
$$

NYZ001>004-010>016-019>021-281900-
WEST


CITY           SKY/WX    TMP DP  RH WIND       PRES   REMARKS
NIAGARA FALLS  CLOUDY    60  57  89 N10       29.74R
BUFFALO        LGT RAIN  60  57  89 N10       29.74R
DUNKIRK        LGT RAIN  60  57  89 NW15G23   29.77R
JAMESTOWN      CLOUDY    55  54  94 N15G23    29.76R
WELLSVILLE     RAIN      60  56  86 N12       29.72R FOG
ROCHESTER      LGT RAIN  61  58  90 N16       29.69R FOG
PENN YAN       RAIN      62  59  90 NW12G24   29.63R FOG
$$

             KEY
       WCI = WIND CHILL INDEX
       VSB = VISIBILITY
       HX  = HEAT INDEX
$$


USA.gov is the U.S. government's official web portal to all federal, state and local government web resources and services.